Wind_Speed
18 18 18 18 18 18 18 18 19 18 17 17 17 18 19 19 20 20 20 21 21 22 23 24 25 26 27 27 28 28 29 30 31 32 33 34 35 34
20 21 21 21 21 21 21 21 21 21 21 20 19 19 20 20 20 22 22 22 23 24 24 25 25 26 27 29 30 31 31 32 32 33 34 35 36 37
23 23 23 23 23 23 23 23 23 23 23 23 22 22 22 23 23 23 23 24 24 25 25 26 26 26 27 28 30 31 32 33 34 35 35 36 37 38
25 25 25 26 26 26 26 26 26 25 25 25 25 25 24 25 25 26 26 26 26 26 27 27 27 28 28 29 29 30 32 34 35 36 37 39 39 40
27 27 27 27 28 28 28 28 28 28 28 27 27 27 27 27 27 27 28 28 28 28 28 28 29 29 29 29 30 31 32 33 35 36 38 40 41 42
29 29 29 29 30 30 30 30 31 30 30 30 30 30 30 30 30 30 29 29 29 30 30 29 29 30 31 31 31 32 33 34 35 36 37 39 41 43
31 31 31 32 32 32 32 32 32 32 32 32 32 33 33 33 32 32 31 31 31 32 32 31 31 31 32 32 32 32 33 34 35 36 37 38 40 42
33 33 33 33 34 34 34 34 34 34 34 35 35 35 36 35 35 35 35 34 33 34 33 33 34 33 33 33 33 33 34 34 35 36 36 37 39 41
35 35 35 36 36 36 36 37 37 38 38 38 38 38 38 38 37 37 37 36 35 36 36 35 35 35 35 34 34 34 35 35 36 36 37 37 38 40
38 38 38 38 39 40 40 40 40 40 40 41 41 40 40 40 41 40 39 39 38 38 39 38 37 37 37 36 35 35 35 36 36 36 37 37 38 39
40 41 41 41 42 44 44 44 44 43 44 45 44 43 43 43 44 44 43 43 41 40 41 41 39 39 38 38 38 37 36 36 36 37 37 38 38 39
40 41 42 43 44 45 46 47 47 47 48 48 47 47 46 46 46 47 47 46 45 43 43 44 42 41 40 39 39 39 38 37 37 37 38 38 39 39
43 44 45 46 47 48 49 49 49 50 51 51 51 51 50 50 49 50 50 49 48 46 45 46 45 44 43 40 40 40 39 38 38 38 38 39 39 39
47 48 49 51 51 52 52 53 54 55 55 55 55 54 54 53 53 52 52 51 51 50 48 48 46 45 44 42 40 40 40 40 39 38 38 38 38 39
50 52 53 55 56 56 57 57 58 59 60 60 59 59 58 57 56 55 53 52 51 50 48 48 48 47 46 44 42 41 41 41 41 40 39 39 38 39
55 57 58 59 60 61 61 62 63 63 64 63 62 61 60 58 57 56 55 53 52 50 49 48 48 48 47 46 45 43 42 42 41 41 41 40 39 39
60 61 62 63 64 64 65 65 65 65 65 63 62 61 59 59 58 56 55 54 52 51 49 48 48 47 47 46 45 44 43 43 42 42 42 40 39 39
64 64 65 66 66 67 67 66 65 65 64 62 61 60 60 58 57 56 55 54 54 52 49 48 47 47 46 45 44 44 43 42 41 41 41 40 39 39
64 64 64 65 65 65 64 64 63 62 62 61 60 58 56 55 55 54 54 53 52 51 50 49 48 46 45 44 42 43 42 41 41 41 41 40 39 39
61 61 61 61 61 60 59 58 57 56 56 56 55 54 52 51 50 49 49 49 50 49 48 48 48 46 44 44 43 42 41 40 40 41 40 40 39 39
57 57 56 55 54 53 52 51 51 50 49 48 47 47 46 45 45 45 45 45 45 45 45 45 44 44 44 44 43 42 41 41 41 40 39 39 39 38
52 51 50 48 47 46 45 45 44 43 42 41 40 40 40 40 40 40 40 40 40 40 41 41 42 43 42 41 41 40 40 40 39 39 38 38 37 37
47 45 43 42 41 41 40 39 38 37 36 36 36 36 35 35 35 34 35 35 36 37 37 37 38 40 40 39 39 39 38 38 38 37 36 36 36 36
Wind_Direction
308 310 310 311 313 312 312 312 311 310 310 309 307 305 302 300 297 295 293 290 287 285 282 279 276 273 271 269 267 265 263 261 258 256 255 253 253 253
302 304 304 305 305 305 306 306 306 307 307 306 304 302 299 298 295 293 292 290 288 286 284 282 279 276 273 271 268 266 264 263 261 258 256 255 254 254
298 299 300 300 300 300 301 301 301 301 302 303 302 300 297 296 295 293 291 290 288 287 286 284 282 279 277 274 272 269 266 264 263 261 258 257 255 254
295 295 296 296 297 297 297 297 296 296 297 298 299 298 296 294 294 292 291 290 288 287 286 285 283 281 279 277 275 272 269 266 264 262 260 258 256 255
292 292 292 293 294 294 294 294 294 293 293 293 294 294 294 293 292 291 290 289 287 286 285 284 283 282 281 279 277 275 272 269 266 264 262 260 258 256
289 289 289 290 290 291 291 292 292 291 291 291 291 292 292 292 291 290 289 288 287 286 284 283 282 281 281 279 279 277 275 273 270 268 265 263 260 258
286 286 287 288 288 288 289 290 290 289 289 290 290 290 290 289 288 288 288 287 287 285 284 283 281 280 280 279 279 278 277 275 272 271 269 266 263 259
284 285 286 287 288 289 288 289 289 289 288 289 289 289 288 288 287 287 287 287 287 285 284 283 282 280 278 278 278 278 278 276 274 272 270 269 266 262
283 283 284 286 286 286 286 287 288 288 288 288 288 288 287 287 286 286 287 287 287 286 285 283 282 281 279 278 278 277 276 276 275 274 272 269 267 264
282 283 284 285 285 285 286 285 286 286 286 286 287 287 286 286 285 285 286 286 287 286 285 284 282 280 279 278 277 277 276 275 275 274 273 271 269 266
282 283 284 285 284 285 286 286 286 286 286 285 285 284 284 284 284 284 285 285 285 285 284 283 281 280 279 278 277 276 276 275 275 274 273 272 270 268
285 285 284 285 285 285 285 285 285 286 285 285 285 284 283 283 283 283 283 283 283 282 282 281 280 279 277 277 276 276 275 275 275 274 274 272 271 269
285 286 286 285 286 285 285 285 284 284 284 284 285 284 283 283 282 281 281 281 281 281 280 280 280 279 277 275 275 275 275 274 274 274 273 272 271 270
287 287 287 287 287 286 286 285 285 284 283 283 283 283 282 281 280 279 278 278 278 278 278 278 278 277 276 275 274 273 274 274 274 272 271 271 270 270
288 287 287 287 287 287 286 285 284 284 283 282 282 282 281 280 279 278 277 276 274 274 274 275 276 275 274 274 274 273 273 273 273 272 271 269 269 268
288 288 288 288 287 287 286 285 284 284 283 283 282 281 279 278 277 276 274 274 272 271 271 271 272 273 273 273 273 274 273 273 272 271 271 269 268 268
289 288 288 287 286 286 285 285 284 283 283 282 280 279 277 276 275 274 272 271 270 269 268 269 269 269 270 271 272 273 273 272 271 271 270 268 268 267
290 289 289 288 287 287 286 285 283 282 281 280 278 277 276 274 272 271 270 269 267 266 266 266 266 265 265 266 269 270 270 270 270 269 269 268 267 266
290 290 290 289 288 287 286 285 283 282 281 279 278 276 275 273 270 268 267 265 264 263 261 261 261 261 262 264 265 267 268 269 269 268 268 267 266 265
292 291 291 290 290 289 288 287 285 283 281 280 277 275 273 272 270 268 266 263 261 260 259 257 256 258 260 262 264 264 265 266 267 267 266 266 266 266
293 293 293 292 292 290 288 287 286 285 283 280 278 275 272 270 267 265 264 263 260 257 256 255 255 257 259 261 262 261 262 264 265 263 263 265 266 266
296 295 294 294 293 292 290 289 289 286 283 280 277 275 272 269 266 264 263 261 259 256 255 254 254 255 257 259 260 260 261 263 263 262 262 265 265 265
298 296 296 296 295 294 293 291 289 287 284 280 276 275 274 270 266 263 262 261 258 257 256 256 255 255 257 259 259 260 261 261 262 263 263 264 264 264
Height
5867 5866 5865 5864 5862 5861 5859 5858 5857 5855 5854 5853 5852 5850 5849 5848 5847 5846 5846 5845 5844 5844 5844 5844 5844 5844 5845 5845 5846 5847 5848 5850 5851 5853 5855 5857 5859 5861
5863 5862 5861 5860 5858 5857 5856 5854 5852 5851 5850 5849 5848 5846 5844 5843 5842 5841 5840 5839 5839 5838 5837 5837 5837 5837 5837 5837 5838 5839 5840 5841 5843 5844 5846 5848 5850 5853
5858 5857 5856 5855 5853 5852 5851 5849 5848 5846 5845 5843 5842 5841 5839 5838 5837 5835 5834 5833 5832 5831 5831 5830 5830 5829 5829 5829 5830 5830 5831 5832 5833 5835 5836 5839 5841 5843
5853 5851 5850 5849 5848 5846 5845 5843 5842 5841 5839 5837 5836 5835 5834 5832 5830 5829 5828 5827 5826 5825 5824 5823 5822 5822 5821 5821 5821 5821 5822 5822 5824 5825 5826 5828 5830 5832
5846 5845 5844 5842 5841 5839 5838 5837 5835 5834 5832 5831 5829 5828 5826 5825 5824 5822 5821 5819 5818 5817 5816 5815 5814 5813 5813 5812 5812 5812 5812 5813 5813 5814 5815 5817 5819 5820
5839 5838 5836 5835 5834 5832 5831 5829 5828 5826 5825 5823 5822 5820 5819 5817 5816 5814 5813 5811 5810 5809 5808 5807 5806 5805 5804 5803 5803 5802 5802 5802 5802 5803 5804 5805 5807 5809
5831 5830 5829 5827 5826 5824 5822 5821 5819 5818 5816 5815 5813 5812 5810 5808 5807 5806 5804 5803 5801 5800 5799 5798 5797 5796 5795 5794 5793 5793 5792 5792 5792 5792 5793 5793 5795 5796
5822 5821 5820 5818 5817 5815 5813 5811 5810 5809 5807 5805 5804 5802 5800 5799 5797 5796 5794 5793 5792 5790 5789 5788 5787 5786 5785 5784 5783 5782 5781 5781 5781 5781 5781 5782 5782 5784
5813 5811 5810 5809 5807 5805 5803 5801 5800 5798 5796 5795 5793 5791 5790 5788 5786 5785 5783 5782 5781 5779 5778 5777 5776 5775 5774 5773 5773 5772 5771 5770 5769 5769 5769 5770 5770 5771
5802 5801 5799 5798 5796 5794 5792 5791 5789 5787 5785 5783 5781 5780 5778 5776 5774 5773 5772 5771 5770 5768 5766 5765 5764 5763 5762 5762 5761 5760 5760 5759 5758 5758 5758 5758 5758 5759
5791 5789 5788 5786 5784 5781 5779 5778 5777 5775 5773 5770 5769 5768 5766 5764 5761 5760 5759 5757 5757 5756 5753 5752 5752 5750 5750 5749 5748 5748 5748 5747 5746 5746 5746 5746 5746 5747
5779 5777 5775 5773 5771 5769 5766 5765 5763 5761 5758 5756 5754 5754 5752 5751 5748 5746 5744 5743 5742 5742 5740 5738 5738 5737 5737 5737 5735 5735 5735 5735 5734 5733 5733 5733 5733 5734
5765 5764 5761 5759 5757 5755 5752 5750 5748 5746 5743 5741 5740 5738 5736 5735 5733 5731 5729 5727 5727 5727 5726 5723 5723 5722 5722 5723 5723 5722 5722 5722 5721 5721 5720 5720 5720 5721
5751 5749 5747 5744 5742 5739 5736 5734 5731 5728 5726 5724 5723 5721 5720 5718 5716 5715 5713 5712 5711 5711 5710 5708 5707 5707 5707 5708 5709 5709 5708 5708 5708 5708 5708 5708 5708 5708
5736 5734 5731 5728 5724 5722 5719 5716 5713 5710 5707 5705 5704 5703 5701 5699 5697 5696 5695 5694 5694 5694 5694 5692 5691 5691 5692 5692 5694 5694 5694 5694 5694 5694 5694 5695 5695 5696
5720 5717 5713 5710 5706 5703 5700 5696 5693 5690 5686 5684 5683 5681 5680 5678 5677 5676 5676 5675 5675 5676 5677 5677 5676 5676 5676 5677 5678 5679 5680 5680 5680 5680 5680 5681 5682 5683
5701 5698 5694 5690 5686 5683 5679 5675 5671 5668 5665 5663 5661 5659 5658 5657 5657 5656 5656 5656 5656 5658 5659 5660 5660 5660 5661 5661 5662 5663 5664 5665 5665 5666 5666 5667 5669 5669
5681 5677 5672 5668 5664 5660 5656 5652 5649 5645 5642 5640 5638 5637 5636 5635 5635 5635 5635 5636 5637 5639 5641 5643 5644 5644 5645 5646 5648 5648 5649 5650 5651 5651 5652 5653 5655 5656
5660 5655 5650 5646 5641 5637 5633 5629 5625 5623 5620 5617 5616 5615 5614 5613 5613 5614 5615 5616 5618 5620 5623 5625 5626 5627 5628 5631 5634 5633 5634 5635 5636 5637 5638 5639 5641 5642
5639 5634 5630 5625 5620 5615 5611 5607 5603 5601 5598 5596 5594 5594 5593 5593 5593 5594 5595 5597 5599 5601 5604 5607 5609 5611 5613 5615 5618 5619 5620 5621 5622 5623 5624 5625 5627 5628
5621 5615 5610 5605 5600 5595 5591 5588 5584 5581 5579 5576 5575 5575 5574 5574 5575 5576 5578 5579 5581 5583 5587 5590 5593 5595 5597 5600 5602 5605 5606 5606 5608 5609 5611 5612 5614 5615
5602 5597 5592 5587 5582 5578 5574 5571 5568 5565 5562 5560 5559 5558 5558 5558 5559 5561 5562 5564 5566 5568 5571 5575 5578 5581 5583 5585 5587 5590 5592 5593 5594 5596 5598 5599 5600 5602
5586 5581 5577 5573 5568 5564 5560 5556 5553 5551 5549 5547 5546 5545 5545 5545 5546 5547 5549 5551 5553 5555 5558 5561 5564 5567 5569 5572 5574 5576 5579 5580 5581 5583 5586 5587 5588 5589